Wind_Speed
7 7 7 8 8 8 8 9 9 9 10 10 10 10 10 10 10 11 11 11 11 11 11 11 11 11 11 11 11 12 11 11 10 10 11 11 11 11 11 10 11 11 11
8 8 8 9 9 9 9 9 10 10 11 11 11 11 11 11 11 12 12 12 12 12 12 12 12 12 11 11 12 12 12 11 11 11 11 11 11 11 11 11 12 12 12
8 8 9 9 10 10 10 10 11 11 12 12 12 12 12 12 12 13 13 12 12 12 12 12 12 12 13 12 12 12 12 12 11 11 11 11 11 11 12 12 12 12 12
8 8 9 10 10 10 10 11 12 12 12 12 12 12 12 12 13 13 13 13 12 13 14 14 13 13 14 14 13 12 13 13 13 13 12 12 12 12 12 12 12 12 12
8 8 9 9 10 11 11 12 12 13 13 13 13 13 13 13 13 14 14 14 15 15 15 15 15 15 15 14 14 13 13 13 13 13 12 12 12 13 13 12 13 13 13
8 8 9 10 10 11 12 13 13 14 14 14 14 14 14 14 14 15 15 15 16 16 16 16 16 16 16 15 14 14 14 14 13 13 13 13 13 13 13 13 13 13 13
9 9 10 11 12 12 13 13 14 14 14 14 15 15 15 15 15 16 16 16 17 17 17 16 16 17 17 16 15 15 15 14 14 14 14 14 14 13 13 14 14 14 14
11 11 11 12 12 12 13 14 15 15 15 16 16 16 16 16 16 17 17 17 17 17 17 17 17 17 17 17 16 16 15 15 15 15 15 16 15 15 15 15 15 15 14
12 13 13 13 13 14 14 15 15 16 16 17 17 17 17 17 18 18 18 18 18 17 17 18 18 17 17 18 18 18 17 17 16 16 17 17 17 17 16 17 16 16 15
14 14 15 15 15 15 16 16 17 17 17 17 17 17 17 18 19 18 18 19 18 18 18 18 18 18 18 18 18 19 19 18 18 18 18 19 19 19 19 18 18 18 17
15 16 16 16 16 17 17 18 18 18 18 18 17 18 18 19 19 19 19 19 19 19 19 19 19 19 19 19 19 20 20 20 20 20 20 20 21 21 20 20 20 20 19
16 17 17 18 18 18 19 19 19 19 19 19 19 19 19 19 19 19 19 19 18 19 19 19 19 20 20 20 20 20 21 22 22 22 21 21 22 22 22 22 22 22 21
18 18 19 19 19 20 20 20 19 20 21 20 20 20 20 19 19 19 19 19 19 19 19 20 20 20 21 21 21 22 22 22 23 23 23 23 23 23 23 23 23 23 23
19 19 20 20 21 21 21 21 21 21 21 21 21 21 21 21 21 20 20 20 20 20 20 20 20 20 20 21 21 22 22 22 23 23 23 24 25 25 24 24 23 23 23
20 20 21 21 22 22 22 22 22 23 22 22 22 22 22 22 22 21 21 21 21 21 22 21 21 21 21 21 22 22 22 22 22 23 23 24 24 24 24 24 24 24 24
22 22 22 22 22 23 23 24 24 24 23 24 23 23 23 23 23 23 23 22 22 22 22 23 23 23 23 23 22 21 22 22 23 23 22 22 23 23 23 23 24 24 24
23 24 23 23 24 24 24 25 25 25 25 25 25 25 25 25 25 25 24 24 24 24 24 24 24 24 24 24 24 23 23 23 24 24 24 24 24 24 23 24 24 25 25
25 25 24 24 24 25 26 26 26 26 26 26 26 27 27 26 26 26 26 26 26 26 26 26 25 25 25 25 26 26 25 25 25 26 26 26 25 25 26 26 26 26 26
25 25 25 25 25 25 26 26 27 27 27 28 28 28 29 28 28 28 27 28 28 28 28 27 27 27 27 27 27 27 27 27 26 27 27 28 28 27 27 28 28 28 28
24 25 25 25 25 26 27 27 27 28 28 29 29 30 30 30 30 29 29 29 29 29 29 28 28 28 28 28 28 28 28 28 28 28 28 28 29 29 29 29 29 29 29
25 25 26 26 26 27 28 29 30 30 30 30 30 31 31 31 31 30 30 30 30 30 30 29 29 29 29 29 29 29 29 29 29 29 29 29 30 30 31 31 31 30 31
26 26 26 27 27 28 29 30 30 30 30 30 31 31 31 31 31 31 31 31 31 31 31 30 30 30 31 31 31 31 31 31 31 31 31 30 30 31 31 31 31 32 32
26 27 27 27 28 28 29 30 30 30 29 30 30 31 31 31 31 31 31 30 30 31 32 32 31 32 33 33 33 33 33 33 32 32 32 32 31 31 31 31 32 33 34
28 28 29 28 28 29 29 30 30 30 30 30 30 30 30 31 31 31 31 31 31 31 31 32 32 32 33 33 34 34 34 33 33 33 33 33 32 32 32 32 32 33 34
29 29 29 30 30 30 30 30 30 30 30 31 31 31 31 31 31 31 31 31 31 31 31 31 32 33 33 33 34 34 33 33 34 34 34 34 34 34 34 34 33 33 34
29 30 30 31 31 31 31 31 31 31 31 30 31 31 31 31 31 31 31 31 31 32 32 32 32 32 33 33 33 33 33 33 34 34 34 34 34 34 34 34 34 35 35
Wind_Direction
278 282 282 285 288 288 291 291 290 291 290 291 291 292 294 296 297 298 298 296 293 290 287 288 292 291 287 284 282 280 279 274 271 270 270 270 269 267 266 267 269 271 272
278 281 279 282 288 290 293 295 293 291 290 289 289 290 290 291 294 298 297 294 290 291 292 290 291 289 288 286 283 282 279 276 272 272 271 270 270 269 267 265 267 268 269
276 278 278 281 286 290 293 293 292 291 288 288 288 288 289 288 289 292 293 291 288 287 289 290 291 290 289 287 284 283 281 279 274 273 270 269 269 268 267 267 269 270 271
272 275 279 281 283 288 292 293 292 291 291 288 287 288 290 291 290 290 289 289 288 288 287 287 286 286 286 284 281 282 281 280 274 271 269 269 271 273 270 270 272 271 271
276 280 283 284 285 288 291 293 293 292 292 290 288 288 288 289 289 288 289 289 289 288 287 285 285 284 280 279 278 276 277 278 274 269 268 268 272 274 271 271 273 274 272
279 282 284 283 285 288 289 292 292 293 292 291 289 289 289 288 287 288 288 288 289 288 286 285 283 284 279 276 276 276 275 275 274 270 267 268 271 274 274 271 273 274 275
281 281 283 284 286 288 290 292 292 293 292 291 288 287 288 288 289 289 288 287 288 288 287 283 283 282 281 277 274 274 275 273 272 270 267 267 268 270 271 271 273 275 275
283 283 285 286 287 288 290 292 292 293 291 289 287 286 287 288 289 288 288 288 288 288 285 283 282 280 278 276 272 272 272 272 272 269 267 265 265 266 267 269 272 273 272
282 282 285 287 287 288 291 293 292 291 289 287 285 285 285 286 285 287 288 287 287 285 283 282 281 280 277 274 272 271 270 271 272 271 267 265 263 263 266 268 270 272 271
280 282 283 286 289 289 290 292 290 289 288 287 288 287 286 286 286 286 287 288 286 284 283 281 279 278 277 275 272 271 269 267 269 271 268 265 264 264 265 267 268 269 270
284 285 285 285 288 290 292 291 292 292 292 292 291 290 289 288 288 287 287 286 284 282 281 279 277 277 277 275 272 270 268 266 267 268 266 266 265 264 264 266 267 267 269
287 289 288 286 287 289 290 289 291 292 293 292 291 290 291 290 291 289 288 286 284 283 282 279 277 276 277 275 273 271 269 267 267 268 266 267 267 264 264 265 266 267 268
284 288 289 288 287 289 289 288 290 292 292 291 289 290 291 291 289 288 287 285 283 283 283 282 279 278 277 276 274 272 272 269 267 268 268 268 267 265 264 264 265 267 267
286 287 289 290 289 289 289 289 289 290 291 290 288 288 289 290 289 287 286 287 286 284 284 283 281 279 277 276 274 274 273 270 269 268 267 267 266 266 265 263 264 265 266
288 289 290 291 291 291 291 290 290 290 290 289 286 286 286 287 287 286 285 285 287 286 283 283 281 279 278 277 275 274 272 270 269 269 268 266 265 266 266 262 262 263 264
287 288 288 288 289 290 290 290 290 290 290 289 287 285 284 285 285 285 284 284 285 286 284 284 282 278 277 275 274 275 274 271 270 269 268 267 265 265 264 261 260 263 264
287 288 288 288 289 288 289 289 289 289 289 288 287 286 285 284 284 284 283 284 284 284 285 284 282 277 275 274 272 272 274 273 271 271 270 269 268 265 265 264 263 263 265
288 287 286 286 286 287 287 287 287 287 288 288 287 286 284 284 284 283 283 282 283 282 283 284 282 278 274 272 272 271 270 271 271 270 268 269 268 267 266 266 265 266 265
285 285 285 285 285 286 286 285 285 286 286 286 285 284 283 283 283 283 282 281 281 282 282 282 281 279 276 274 273 271 269 270 270 270 270 270 269 269 268 268 266 265 265
285 284 284 286 286 288 289 288 287 287 287 287 285 283 284 284 284 283 282 281 280 280 281 280 279 277 275 274 274 272 270 269 269 269 270 271 270 270 269 268 267 266 265
287 286 285 287 287 289 289 289 290 290 288 288 287 285 285 285 284 284 283 283 281 279 279 279 279 278 275 273 273 272 271 270 270 270 270 271 272 271 271 270 269 267 265
288 287 287 287 288 290 291 291 290 289 288 288 286 285 284 284 284 284 284 283 281 280 279 279 278 278 276 274 273 271 270 270 271 270 270 272 273 273 272 271 269 267 265
288 288 288 288 290 292 293 291 291 290 289 288 286 285 285 284 284 284 284 283 283 282 280 279 277 276 276 273 271 270 270 270 270 270 270 271 271 271 271 271 270 268 267
288 290 290 290 292 294 294 293 292 291 290 290 290 288 287 286 284 283 283 283 282 281 281 279 277 275 274 274 271 269 270 270 270 269 269 269 269 270 271 271 270 270 270
290 292 291 290 291 292 294 295 294 293 292 292 290 290 290 288 285 283 282 281 280 279 279 279 277 276 275 274 274 272 271 272 272 271 270 269 268 269 270 271 270 270 271
291 291 291 291 291 291 292 293 294 294 294 294 293 291 290 288 285 284 283 282 281 280 279 280 279 278 277 275 276 274 273 272 272 271 271 271 270 270 270 271 271 271 271
Height
5851 5851 5850 5850 5849 5849 5848 5848 5847 5847 5846 5845 5845 5844 5844 5843 5842 5841 5840 5839 5838 5837 5837 5836 5835 5834 5833 5832 5831 5830 5829 5829 5828 5828 5827 5827 5827 5827 5826 5826 5826 5825 5825
5849 5848 5848 5847 5847 5847 5846 5845 5845 5844 5843 5843 5842 5841 5841 5840 5839 5838 5837 5836 5835 5834 5833 5833 5832 5830 5829 5828 5828 5827 5826 5825 5824 5824 5824 5824 5824 5823 5823 5823 5822 5822 5822
5846 5846 5845 5845 5844 5844 5843 5842 5842 5841 5840 5839 5839 5838 5837 5837 5836 5835 5834 5833 5832 5831 5830 5829 5828 5827 5826 5824 5823 5823 5822 5822 5821 5821 5821 5820 5820 5820 5819 5819 5819 5819 5818
5843 5843 5842 5842 5841 5841 5840 5839 5839 5838 5837 5836 5835 5834 5834 5833 5832 5831 5830 5829 5828 5827 5826 5825 5824 5823 5821 5820 5819 5819 5818 5817 5817 5817 5817 5817 5816 5816 5816 5816 5815 5815 5815
5840 5840 5839 5839 5838 5837 5837 5836 5835 5834 5833 5832 5832 5831 5830 5829 5828 5827 5826 5825 5824 5823 5822 5820 5819 5818 5817 5816 5815 5815 5814 5813 5813 5813 5812 5812 5812 5812 5812 5812 5812 5811 5811
5837 5837 5836 5835 5835 5834 5834 5833 5832 5831 5829 5828 5828 5827 5826 5825 5824 5823 5822 5821 5819 5818 5817 5816 5815 5813 5812 5811 5811 5810 5810 5809 5809 5809 5808 5808 5808 5808 5808 5808 5807 5807 5806
5834 5834 5833 5832 5832 5831 5830 5829 5828 5827 5826 5825 5824 5823 5821 5820 5819 5818 5817 5815 5814 5813 5812 5811 5809 5808 5807 5807 5806 5806 5805 5805 5804 5804 5804 5804 5804 5804 5804 5804 5803 5802 5802
5831 5830 5830 5829 5828 5827 5826 5825 5824 5823 5822 5820 5819 5818 5817 5815 5814 5813 5811 5810 5809 5807 5806 5805 5804 5803 5802 5801 5801 5800 5800 5800 5799 5799 5799 5799 5799 5799 5799 5799 5799 5798 5798
5827 5827 5826 5825 5825 5823 5822 5821 5820 5818 5817 5816 5815 5813 5812 5810 5809 5807 5806 5804 5803 5802 5801 5800 5799 5798 5797 5796 5795 5795 5794 5794 5794 5794 5794 5794 5794 5794 5794 5794 5794 5794 5793
5823 5823 5822 5821 5820 5819 5818 5817 5815 5814 5812 5811 5809 5808 5806 5805 5803 5802 5800 5799 5797 5796 5795 5794 5793 5792 5791 5790 5789 5789 5788 5788 5788 5788 5788 5788 5788 5788 5788 5788 5788 5788 5788
5819 5818 5817 5817 5816 5815 5814 5812 5810 5809 5807 5806 5804 5802 5801 5799 5798 5796 5795 5793 5791 5790 5789 5788 5787 5786 5785 5784 5783 5783 5782 5782 5782 5781 5781 5781 5781 5782 5782 5782 5782 5782 5781
5815 5814 5813 5812 5811 5810 5808 5807 5805 5804 5802 5800 5798 5797 5795 5794 5792 5790 5789 5787 5786 5784 5783 5781 5780 5779 5778 5777 5777 5776 5776 5775 5775 5774 5775 5775 5775 5775 5775 5775 5775 5775 5775
5810 5809 5808 5807 5806 5804 5803 5801 5800 5798 5796 5794 5793 5791 5789 5788 5786 5784 5783 5781 5780 5778 5776 5775 5774 5772 5771 5771 5770 5769 5769 5768 5768 5768 5768 5768 5768 5768 5768 5768 5768 5768 5768
5804 5804 5802 5801 5800 5798 5797 5795 5794 5792 5791 5789 5787 5785 5783 5782 5780 5778 5777 5775 5773 5772 5770 5768 5767 5766 5765 5764 5763 5762 5761 5761 5761 5761 5760 5760 5760 5761 5760 5760 5761 5761 5761
5799 5798 5797 5795 5794 5792 5791 5789 5788 5786 5784 5782 5780 5779 5777 5775 5773 5772 5770 5768 5767 5765 5763 5762 5760 5759 5758 5757 5756 5755 5754 5754 5754 5754 5753 5753 5753 5753 5753 5753 5753 5753 5754
5793 5792 5790 5788 5787 5786 5784 5782 5781 5779 5777 5776 5774 5772 5770 5768 5767 5765 5763 5761 5760 5758 5756 5755 5753 5752 5751 5749 5749 5748 5747 5747 5746 5746 5746 5746 5745 5745 5745 5745 5745 5746 5746
5786 5785 5783 5782 5780 5779 5777 5776 5774 5772 5770 5768 5766 5765 5763 5761 5759 5757 5756 5754 5752 5751 5749 5747 5746 5744 5743 5742 5741 5740 5740 5740 5739 5739 5738 5738 5738 5738 5738 5737 5738 5738 5738
5779 5778 5776 5775 5773 5772 5770 5768 5767 5765 5763 5761 5759 5757 5755 5753 5751 5749 5747 5746 5744 5743 5741 5739 5738 5736 5735 5734 5733 5732 5732 5732 5731 5731 5731 5730 5730 5730 5730 5730 5730 5730 5730
5772 5770 5769 5767 5766 5764 5762 5760 5759 5757 5755 5753 5751 5749 5746 5744 5742 5740 5739 5737 5735 5734 5732 5730 5729 5728 5726 5725 5725 5724 5724 5723 5723 5723 5722 5722 5722 5722 5722 5722 5722 5722 5721
5765 5763 5762 5760 5758 5757 5755 5753 5751 5749 5746 5744 5742 5740 5738 5735 5733 5731 5729 5728 5726 5724 5723 5721 5720 5719 5718 5717 5716 5715 5715 5715 5714 5714 5714 5714 5713 5713 5712 5713 5713 5713 5712
5757 5756 5754 5753 5751 5749 5747 5744 5742 5740 5738 5735 5733 5730 5728 5726 5723 5721 5719 5717 5716 5714 5713 5712 5710 5709 5709 5708 5707 5706 5706 5706 5705 5705 5705 5704 5704 5703 5703 5703 5703 5703 5703
5750 5749 5747 5745 5743 5741 5738 5736 5733 5731 5728 5726 5723 5720 5718 5716 5713 5711 5709 5707 5705 5704 5703 5702 5701 5700 5699 5698 5698 5697 5696 5696 5696 5696 5695 5695 5694 5694 5693 5693 5693 5693 5693
5743 5741 5739 5737 5735 5732 5730 5727 5724 5721 5719 5716 5713 5710 5708 5705 5703 5701 5699 5697 5695 5694 5693 5692 5691 5690 5689 5688 5687 5687 5686 5686 5685 5685 5685 5685 5684 5684 5684 5683 5683 5682 5682
5735 5733 5731 5729 5727 5724 5721 5718 5715 5712 5710 5706 5703 5701 5698 5696 5693 5691 5689 5687 5686 5684 5683 5681 5680 5679 5678 5677 5676 5676 5675 5675 5675 5675 5675 5674 5674 5674 5673 5673 5672 5672 5671
5727 5725 5722 5720 5717 5715 5712 5709 5706 5703 5700 5697 5694 5691 5688 5686 5683 5681 5679 5677 5676 5674 5672 5671 5669 5668 5667 5666 5665 5665 5665 5664 5664 5664 5664 5664 5663 5663 5663 5662 5662 5661 5661
5719 5716 5714 5711 5708 5706 5703 5700 5697 5694 5691 5688 5684 5681 5678 5676 5673 5671 5669 5667 5665 5663 5662 5660 5659 5658 5657 5655 5655 5654 5653 5653 5653 5652 5653 5652 5652 5652 5652 5651 5651 5650 5649